Tracking 19280 objects as of 15-Nov-2018
HD Live streaming from Space Station
objects crossing your sky now

EXPLORER 22

Track EXPLORER 22 now!
10-day predictions
EXPLORER 22 is classified as:


NORAD ID: 899
Int'l Code: 1964-064A
Perigee: 874.8 km
Apogee: 1,052.5 km
Inclination: 79.7 °
Period: 104.2 minutes
Semi major axis: 7334 km
RCS: 1.5662 m2 (large)
Launch date: October 10, 1964
Source: United States (US)
Launch site: AIR FORCE WESTERN TEST RANGE (AFWTR)
aabbcc
Your satellite tracking list
Your tracking list is empty




NASA's NSSDC Master Catalog

Two Line Element Set (TLE):
1   899U 64064A   18318.93535185 +.00000110 +00000-0 +90305-4 0  9999
2   899 079.6898 276.3011 0121111 122.8200 238.4682 13.82077091722065
Source of the keplerian elements: AFSPC